| time (UTC) | temp F | wind direction | speed MPH | gust MPH | rain 1hr in | rain 24hr in | rain mn in | humidity % | barometer mb |
| 20260505022223 | 63 | 135 | 5.0 | 7.0 | 0.00 | 0.00 | 0.00 | 38 | 1011.6 |
| 20260505021720 | 64 | 95 | 2.0 | 5.0 | 0.00 | 0.00 | 0.00 | 38 | 1011.5 |
| 20260505021217 | 64 | 116 | 3.0 | 9.0 | 0.00 | 0.00 | 0.00 | 38 | 1011.5 |
| 20260505020713 | 64 | 134 | 4.0 | 8.0 | 0.00 | 0.00 | 0.00 | 38 | 1011.4 |
| 20260505020208 | 64 | 132 | 9.0 | 9.0 | 0.00 | 0.00 | 0.00 | 38 | 1011.5 |
| 20260505015706 | 64 | 145 | 3.0 | 13.0 | 0.00 | 0.00 | 0.00 | 38 | 1011.5 |
| 20260505015203 | 64 | 135 | 6.0 | 11.0 | 0.00 | 0.00 | 0.00 | 38 | 1011.7 |
| 20260505014659 | 64 | 123 | 5.0 | 13.0 | 0.00 | 0.00 | 0.00 | 38 | 1011.2 |
| 20260505014156 | 64 | 140 | 5.0 | 17.0 | 0.00 | 0.00 | 0.00 | 38 | 1011.1 |
| 20260505013654 | 65 | 147 | 7.0 | 7.0 | 0.00 | 0.00 | 0.00 | 38 | 1011.2 |
| 20260505013151 | 65 | 195 | 2.0 | 5.0 | 0.00 | 0.00 | 0.00 | 38 | 1011.6 |
| 20260505012649 | 65 | 154 | 1.0 | 5.0 | 0.00 | 0.00 | 0.00 | 38 | 1011.6 |
| 20260505012146 | 65 | 119 | 7.0 | 11.0 | 0.00 | 0.00 | 0.00 | 38 | 1011.6 |
| 20260505011641 | 64 | 129 | 3.0 | 9.0 | 0.00 | 0.00 | 0.00 | 38 | 1011.5 |
| 20260505011139 | 65 | 120 | 13.0 | 16.0 | 0.00 | 0.00 | 0.00 | 38 | 1011.7 |
| 20260505010639 | 65 | 120 | 4.0 | 15.0 | 0.00 | 0.00 | 0.00 | 38 | 1011.5 |
| 20260505010136 | 65 | 134 | 7.0 | 15.0 | 0.00 | 0.00 | 0.00 | 38 | 1011.6 |
| 20260505005632 | 65 | 131 | 8.0 | 13.0 | 0.00 | 0.00 | 0.00 | 38 | 1011.5 |
| 20260505005129 | 66 | 141 | 10.0 | 15.0 | 0.00 | 0.00 | 0.00 | 34 | 1011.8 |
| 20260505004626 | 68 | 122 | 5.0 | 10.0 | 0.00 | 0.00 | 0.00 | 34 | 1011.7 |
| 20260505004123 | 68 | 127 | 3.0 | 7.0 | 0.00 | 0.00 | 0.00 | 30 | 1011.6 |
| 20260505003620 | 68 | 140 | 2.0 | 7.0 | 0.00 | 0.00 | 0.00 | 29 | 1011.6 |
| 20260505003118 | 68 | 278 | 0.0 | 3.0 | 0.00 | 0.00 | 0.00 | 31 | 1011.5 |
| 20260505002614 | 68 | 184 | 0.0 | 2.0 | 0.00 | 0.00 | 0.00 | 31 | 1011.5 |
| 20260505002112 | 67 | 119 | 0.0 | 6.0 | 0.00 | 0.00 | 0.00 | 31 | 1011.7 |
| 20260505001609 | 67 | 258 | 5.0 | 6.0 | 0.00 | 0.00 | 0.00 | 31 | 1011.7 |
| 20260505001107 | 68 | 103 | 0.0 | 2.0 | 0.00 | 0.00 | 0.00 | 31 | 1011.6 |
| 20260505000603 | 68 | 194 | 0.0 | 1.0 | 0.00 | 0.00 | 0.00 | 30 | 1011.7 |
| 20260504235557 | 68 | 283 | 0.0 | 4.0 | 0.00 | 0.00 | 0.00 | 30 | 1011.5 |
| 20260504235054 | 69 | 293 | 2.0 | 4.0 | 0.00 | 0.00 | 0.00 | 30 | 1011.7 |
| 20260504234551 | 69 | 7 | 2.0 | 5.0 | 0.00 | 0.00 | 0.00 | 31 | 1011.7 |
| 20260504234048 | 69 | 274 | 2.0 | 5.0 | 0.00 | 0.00 | 0.00 | 30 | 1011.9 |
| 20260504233543 | 68 | 120 | 1.0 | 3.0 | 0.00 | 0.00 | 0.00 | 32 | 1011.6 |
| 20260504233041 | 68 | 15 | 4.0 | 5.0 | 0.00 | 0.00 | 0.00 | 33 | 1011.7 |
| 20260504232538 | 69 | 61 | 3.0 | 7.0 | 0.00 | 0.00 | 0.00 | 33 | 1011.4 |
| 20260504232036 | 68 | 65 | 2.0 | 8.0 | 0.00 | 0.00 | 0.00 | 33 | 1011.2 |
| 20260504231532 | 69 | 32 | 4.0 | 5.0 | 0.00 | 0.00 | 0.00 | 33 | 1011.6 |
| 20260504231028 | 69 | 151 | 7.0 | 7.0 | 0.00 | 0.00 | 0.00 | 33 | 1011.6 |
| 20260504230524 | 69 | 194 | 3.0 | 7.0 | 0.00 | 0.00 | 0.00 | 33 | 1011.6 |
| 20260504230023 | 68 | 23 | 4.0 | 6.0 | 0.00 | 0.00 | 0.00 | 33 | 1011.5 |
| 20260504225520 | 68 | 303 | 2.0 | 9.0 | 0.00 | 0.00 | 0.00 | 32 | 1011.6 |
| 20260504225017 | 69 | 204 | 2.0 | 9.0 | 0.00 | 0.00 | 0.00 | 32 | 1011.7 |
| 20260504224514 | 69 | 217 | 2.0 | 5.0 | 0.00 | 0.00 | 0.00 | 32 | 1011.8 |
| 20260504224011 | 68 | 334 | 2.0 | 13.0 | 0.00 | 0.00 | 0.00 | 33 | 1011.6 |
| 20260504223507 | 69 | 96 | 2.0 | 11.0 | 0.00 | 0.00 | 0.00 | 32 | 1011.7 |
| 20260504223003 | 69 | 304 | 4.0 | 13.0 | 0.00 | 0.00 | 0.00 | 32 | 1012.0 |
| 20260504222500 | 71 | 1 | 6.0 | 13.0 | 0.00 | 0.00 | 0.00 | 31 | 1011.9 |
| 20260504221958 | 72 | 356 | 6.0 | 11.0 | 0.00 | 0.00 | 0.00 | 29 | 1011.7 |
| 20260504221455 | 72 | 90 | 2.0 | 13.0 | 0.00 | 0.00 | 0.00 | 30 | 1011.8 |
| 20260504220952 | 72 | 3 | 5.0 | 13.0 | 0.00 | 0.00 | 0.00 | 30 | 1011.8 |
| 20260504220448 | 74 | 39 | 4.0 | 8.0 | 0.00 | 0.00 | 0.00 | 28 | 1011.9 |
| 20260504215945 | 71 | 326 | 2.0 | 7.0 | 0.00 | 0.00 | 0.00 | 29 | 1011.9 |
| 20260504215442 | 73 | 19 | 5.0 | 8.0 | 0.00 | 0.00 | 0.00 | 28 | 1011.8 |
| 20260504214938 | 73 | 25 | 4.0 | 7.0 | 0.00 | 0.00 | 0.00 | 29 | 1011.9 |
| 20260504214435 | 72 | 308 | 0.0 | 7.0 | 0.00 | 0.00 | 0.00 | 30 | 1012.0 |
| 20260504213931 | 71 | 319 | 5.0 | 5.0 | 0.00 | 0.00 | 0.00 | 30 | 1011.8 |
| 20260504213427 | 74 | 274 | 2.0 | 5.0 | 0.00 | 0.00 | 0.00 | 29 | 1012.2 |
| 20260504212925 | 74 | 318 | 6.0 | 11.0 | 0.00 | 0.00 | 0.00 | 28 | 1011.9 |
| 20260504212420 | 73 | 229 | 2.0 | 7.0 | 0.00 | 0.00 | 0.00 | 27 | 1012.2 |
| 20260504211919 | 72 | 166 | 3.0 | 6.0 | 0.00 | 0.00 | 0.00 | 28 | 1011.9 |
| 20260504211415 | 73 | 232 | 2.0 | 11.0 | 0.00 | 0.00 | 0.00 | 27 | 1011.9 |
| 20260504210912 | 71 | 157 | 3.0 | 7.0 | 0.00 | 0.00 | 0.00 | 27 | 1012.0 |
| 20260504210409 | 71 | 231 | 6.0 | 7.0 | 0.00 | 0.00 | 0.00 | 31 | 1012.0 |
| 20260504205906 | 70 | 255 | 2.0 | 14.0 | 0.00 | 0.00 | 0.00 | 31 | 1012.2 |
| 20260504205404 | 70 | 230 | 5.0 | 6.0 | 0.00 | 0.00 | 0.00 | 31 | 1012.3 |
| 20260504204902 | 71 | 180 | 2.0 | 9.0 | 0.00 | 0.00 | 0.00 | 30 | 1012.4 |
| 20260504204400 | 70 | 203 | 3.0 | 12.0 | 0.00 | 0.00 | 0.00 | 30 | 1012.3 |
| 20260504203859 | 72 | 240 | 5.0 | 8.0 | 0.00 | 0.00 | 0.00 | 30 | 1012.5 |
| 20260504203355 | 72 | 235 | 4.0 | 10.0 | 0.00 | 0.00 | 0.00 | 29 | 1012.3 |
| 20260504202852 | 73 | 229 | 3.0 | 9.0 | 0.00 | 0.00 | 0.00 | 28 | 1012.3 |
| 20260504202349 | 73 | 180 | 3.0 | 12.0 | 0.00 | 0.00 | 0.00 | 29 | 1012.3 |
| 20260504201845 | 73 | 253 | 5.0 | 11.0 | 0.00 | 0.00 | 0.00 | 29 | 1012.2 |
| 20260504201343 | 73 | 159 | 5.0 | 8.0 | 0.00 | 0.00 | 0.00 | 28 | 1012.6 |
| 20260504200840 | 73 | 158 | 5.0 | 7.0 | 0.00 | 0.00 | 0.00 | 28 | 1012.7 |
| 20260504200337 | 74 | 138 | 5.0 | 6.0 | 0.00 | 0.00 | 0.00 | 27 | 1012.4 |
| 20260504195833 | 73 | 133 | 3.0 | 12.0 | 0.00 | 0.00 | 0.00 | 28 | 1012.4 |
| 20260504195328 | 73 | 226 | 6.0 | 10.0 | 0.00 | 0.00 | 0.00 | 26 | 1012.6 |
| 20260504194826 | 72 | 172 | 0.0 | 13.0 | 0.00 | 0.00 | 0.00 | 28 | 1012.6 |
| 20260504194322 | 72 | 148 | 5.0 | 13.0 | 0.00 | 0.00 | 0.00 | 30 | 1012.8 |
| 20260504193818 | 73 | 148 | 4.0 | 11.0 | 0.00 | 0.00 | 0.00 | 28 | 1012.7 |
| 20260504193315 | 72 | 218 | 6.0 | 11.0 | 0.00 | 0.00 | 0.00 | 28 | 1012.8 |
| 20260504192814 | 73 | 156 | 4.0 | 9.0 | 0.00 | 0.00 | 0.00 | 28 | 1013.0 |
| 20260504192311 | 72 | 165 | 3.0 | 6.0 | 0.00 | 0.00 | 0.00 | 29 | 1013.0 |
| 20260504191810 | 72 | 127 | 12.0 | 13.0 | 0.00 | 0.00 | 0.00 | 29 | 1013.0 |
| 20260504191307 | 71 | 127 | 6.0 | 12.0 | 0.00 | 0.00 | 0.00 | 31 | 1013.1 |
| 20260504190802 | 71 | 237 | 2.0 | 8.0 | 0.00 | 0.00 | 0.00 | 30 | 1013.2 |
| 20260504190259 | 71 | 187 | 6.0 | 9.0 | 0.00 | 0.00 | 0.00 | 30 | 1013.0 |
| 20260504185755 | 71 | 135 | 2.0 | 6.0 | 0.00 | 0.00 | 0.00 | 33 | 1013.5 |
| 20260504185252 | 71 | 126 | 5.0 | 10.0 | 0.00 | 0.00 | 0.00 | 30 | 1013.4 |
| 20260504184748 | 71 | 106 | 3.0 | 11.0 | 0.00 | 0.00 | 0.00 | 31 | 1013.3 |
| 20260504184244 | 70 | 148 | 0.0 | 9.0 | 0.00 | 0.00 | 0.00 | 33 | 1013.4 |
| 20260504183740 | 70 | 122 | 19.0 | 21.0 | 0.00 | 0.00 | 0.00 | 31 | 1013.6 |
| 20260504183237 | 69 | 132 | 5.0 | 16.0 | 0.00 | 0.00 | 0.00 | 31 | 1013.5 |
| 20260504182735 | 70 | 163 | 3.0 | 21.0 | 0.00 | 0.00 | 0.00 | 31 | 1013.6 |
| 20260504182232 | 70 | 147 | 5.0 | 8.0 | 0.00 | 0.00 | 0.00 | 31 | 1013.6 |
| 20260504181730 | 70 | 232 | 5.0 | 8.0 | 0.00 | 0.00 | 0.00 | 32 | 1013.8 |
| 20260504181227 | 69 | 192 | 3.0 | 8.0 | 0.00 | 0.00 | 0.00 | 33 | 1013.8 |
| 20260504180726 | 69 | 148 | 4.0 | 10.0 | 0.00 | 0.00 | 0.00 | 32 | 1014.0 |
| 20260504180224 | 70 | 124 | 4.0 | 6.0 | 0.00 | 0.00 | 0.00 | 33 | 1014.0 |
| 20260504175722 | 69 | 96 | 2.0 | 8.0 | 0.00 | 0.00 | 0.00 | 34 | 1014.2 |
| 20260504175218 | 67 | 151 | 5.0 | 11.0 | 0.00 | 0.00 | 0.00 | 33 | 1014.1 |
| 20260504174716 | 69 | 131 | 4.0 | 7.0 | 0.00 | 0.00 | 0.00 | 30 | 1014.1 |
| 20260504174214 | 68 | 132 | 5.0 | 12.0 | 0.00 | 0.00 | 0.00 | 32 | 1014.1 |
| 20260504173710 | 68 | 131 | 4.0 | 7.0 | 0.00 | 0.00 | 0.00 | 32 | 1014.6 |
| 20260504173207 | 68 | 133 | 5.0 | 12.0 | 0.00 | 0.00 | 0.00 | 34 | 1014.7 |
| 20260504172704 | 68 | 127 | 4.0 | 7.0 | 0.00 | 0.00 | 0.00 | 31 | 1014.4 |
| 20260504172200 | 68 | 289 | 3.0 | 7.0 | 0.00 | 0.00 | 0.00 | 34 | 1014.6 |
| 20260504171657 | 67 | 102 | 0.0 | 10.0 | 0.00 | 0.00 | 0.00 | 34 | 1014.7 |
| 20260504171154 | 68 | 250 | 2.0 | 7.0 | 0.00 | 0.00 | 0.00 | 34 | 1014.7 |
| 20260504170650 | 67 | 122 | 3.0 | 7.0 | 0.00 | 0.00 | 0.00 | 34 | 1014.4 |
| 20260504170148 | 68 | 145 | 0.0 | 9.0 | 0.00 | 0.00 | 0.00 | 37 | 1014.8 |
| 20260504160106 | 67 | 90 | 0.0 | 2.0 | 0.00 | 0.00 | 0.00 | 40 | 1015.0 |
| 20260504151038 | 61 | 270 | 0.0 | 2.0 | 0.00 | 0.00 | 0.00 | 45 | 1015.4 |
| 20260504150536 | 61 | 127 | 2.0 | 3.0 | 0.00 | 0.00 | 0.00 | 47 | 1015.1 |
| 20260504141002 | 58 | 135 | 3.0 | 6.0 | 0.00 | 0.00 | 0.00 | 52 | 1015.1 |
| 20260504140459 | 58 | 134 | 4.0 | 4.0 | 0.00 | 0.00 | 0.00 | 51 | 1015.3 |
| 20260504130423 | 53 | 20 | 0.0 | 3.0 | 0.00 | 0.00 | 0.00 | 57 | 1015.1 |
| 20260504110310 | 58 | 138 | 3.0 | 7.0 | 0.00 | 0.00 | 0.00 | 51 | 1015.4 |
| 20260504100228 | 54 | 26 | 1.0 | 3.0 | 0.00 | 0.00 | 0.00 | 52 | 1015.1 |
| 20260504081616 | 56 | 144 | 0.0 | 3.0 | 0.00 | 0.00 | 0.00 | 41 | 1014.7 |
| 20260504081112 | 56 | 102 | 1.0 | 4.0 | 0.00 | 0.00 | 0.00 | 42 | 1015.1 |
| 20260504080609 | 55 | 81 | 0.0 | 3.0 | 0.00 | 0.00 | 0.00 | 43 | 1015.1 |
| 20260504080105 | 55 | 22 | 3.0 | 4.0 | 0.00 | 0.00 | 0.00 | 48 | 1015.0 |
| 20260504050421 | 59 | 71 | 0.0 | 4.0 | 0.00 | 0.00 | 0.00 | 30 | 1014.3 |
| 20260504045918 | 60 | 11 | 4.0 | 4.0 | 0.00 | 0.00 | 0.00 | 29 | 1014.2 |
| 20260504045414 | 60 | 0 | 0.0 | 3.0 | 0.00 | 0.00 | 0.00 | 29 | 1014.4 |
| 20260504044910 | 59 | 119 | 0.0 | 3.0 | 0.00 | 0.00 | 0.00 | 30 | 1014.4 |
| 20260504044408 | 59 | 23 | 0.0 | 2.0 | 0.00 | 0.00 | 0.00 | 30 | 1014.6 |
| 20260504043905 | 60 | 90 | 0.0 | 2.0 | 0.00 | 0.00 | 0.00 | 29 | 1014.6 |
| 20260504043402 | 60 | 24 | 0.0 | 3.0 | 0.00 | 0.00 | 0.00 | 30 | 1014.7 |
| 20260504042859 | 60 | 35 | 0.0 | 4.0 | 0.00 | 0.00 | 0.00 | 29 | 1014.6 |
| 20260504042355 | 58 | 0 | 2.0 | 3.0 | 0.00 | 0.00 | 0.00 | 32 | 1014.6 |
| 20260504041852 | 58 | 355 | 0.0 | 3.0 | 0.00 | 0.00 | 0.00 | 35 | 1014.4 |
| 20260504041348 | 58 | 54 | 1.0 | 2.0 | 0.00 | 0.00 | 0.00 | 34 | 1014.4 |
| 20260504040844 | 58 | 8 | 0.0 | 2.0 | 0.00 | 0.00 | 0.00 | 31 | 1014.4 |
| 20260504040342 | 58 | 63 | 1.0 | 2.0 | 0.00 | 0.00 | 0.00 | 34 | 1014.6 |
| 20260504035837 | 58 | 20 | 0.0 | 0.0 | 0.00 | 0.00 | 0.00 | 36 | 1014.2 |
| 20260504035337 | 59 | 37 | 2.0 | 2.0 | 0.00 | 0.00 | 0.00 | 35 | 1014.7 |
| 20260504034833 | 60 | 29 | 0.0 | 1.0 | 0.00 | 0.00 | 0.00 | 34 | 1014.4 |
| 20260504034330 | 60 | 26 | 2.0 | 2.0 | 0.00 | 0.00 | 0.00 | 32 | 1014.4 |
| 20260504033827 | 60 | 5 | 2.0 | 2.0 | 0.00 | 0.00 | 0.00 | 34 | 1014.3 |
| 20260504033325 | 60 | 26 | 1.0 | 3.0 | 0.00 | 0.00 | 0.00 | 36 | 1014.3 |
| 20260504032821 | 61 | 32 | 2.0 | 2.0 | 0.00 | 0.00 | 0.00 | 32 | 1014.6 |
| 20260504032318 | 61 | 63 | 1.0 | 3.0 | 0.00 | 0.00 | 0.00 | 31 | 1014.3 |
| 20260504031816 | 62 | 48 | 2.0 | 2.0 | 0.00 | 0.00 | 0.00 | 29 | 1014.3 |
| 20260504031313 | 64 | 45 | 2.0 | 3.0 | 0.00 | 0.00 | 0.00 | 27 | 1014.4 |
| 20260504030809 | 64 | 25 | 3.0 | 3.0 | 0.00 | 0.00 | 0.00 | 26 | 1014.3 |
| 20260504030306 | 64 | 37 | 2.0 | 3.0 | 0.00 | 0.00 | 0.00 | 23 | 1014.6 |
| 20260504025802 | 64 | 20 | 1.0 | 2.0 | 0.00 | 0.00 | 0.00 | 27 | 1014.2 |
| 20260504025300 | 64 | 15 | 2.0 | 2.0 | 0.00 | 0.00 | 0.00 | 27 | 1014.3 |
| 20260504024756 | 65 | 26 | 1.0 | 2.0 | 0.00 | 0.00 | 0.00 | 26 | 1014.2 |
| 20260504024253 | 65 | 14 | 0.0 | 2.0 | 0.00 | 0.00 | 0.00 | 25 | 1014.1 |
| 20260504023749 | 65 | 14 | 1.0 | 3.0 | 0.00 | 0.00 | 0.00 | 24 | 1014.1 |
| 20260504023245 | 65 | 19 | 2.0 | 3.0 | 0.00 | 0.00 | 0.00 | 25 | 1014.1 |
| 20260504022741 | 66 | 0 | 2.0 | 2.0 | 0.00 | 0.00 | 0.00 | 23 | 1014.2 |